Home > Weather > Legnica > Past weeks

Flag for Poland Past Weather in Legnica, Poland — Yesterday and Last 2 Weeks

Now
79 °F

Overcast.


Feels Like: 80 °F
Forecast: 63 / 78 °F
Wind: 1 mph from Northeast

Location: Wroclaw Ii

Current Time: Jul 28, 2016 at 6:29:59 PM

Latest Report: Jul 28, 2016 at 5:00 PM


Visibility: 25 mi

Pressure: 29.96 "Hg

Humidity: 49%

Dew Point: 58 °F

Location of LegnicaLocation

Past Weather in Legnica — Graph

°F

Legnica Temperature Yesterday

Maximum temperature yesterday: 82 °F (at 2:00 PM)
Minimum temperature yesterday: 65 °F (at 6:00 AM)
Average temperature yesterday: 73 °F

High & Low Weather Summary for the Past Weeks

 TemperatureHumidityPressure
High86 °F (Jul 26, 3:00 PM)98% (Jul 26, 6:00 AM)30.25 "Hg (Jul 26, 6:00 AM)
Low52 °F (Jul 21, 5:00 AM)36% (Jul 21, 5:00 PM)29.63 "Hg (Jul 14, 12:00 PM)
Average68 °F75%30.04 "Hg
* Reported Jul 13 8:00 PM — Jul 28 5:00 PM, Legnica, Weather by CustomWeather, © 2016

Note: Actual official high and low records may vary slightly from our data, if they occured in-between our weather recording intervals... More about our weather records

Advertising

Legnica Weather History for the Previous 24 Hours

Scroll right to see more
 ConditionsComfort  
Time TempWeatherWind HumidityBarometerVisibility
5:00 PM
Thu, Jul 28
79 °FOvercast.1 mph49%29.96 "Hg25 mi
3:00 PM79 °FOvercast.2 mph47%29.98 "Hg25 mi
2:00 PM78 °FOvercast.2 mph52%30.00 "Hg25 mi
1:00 PM78 °FOvercast.3 mph55%30.00 "Hg25 mi
12:00 PM75 °FOvercast.2 mph67%30.01 "Hg19 mi
11:00 AM73 °FOvercast.3 mph78%30.01 "Hg16 mi
10:00 AM69 °FOvercast.3 mph84%30.01 "Hg12 mi
9:00 AM67 °FLow clouds.3 mph87%30.01 "Hg9 mi
8:00 AM67 °FOvercast.2 mph91%30.00 "Hg6 mi
7:00 AM66 °FOvercast.3 mph92%29.99 "Hg7 mi
6:00 AM65 °FOvercast.2 mph92%29.98 "Hg9 mi
5:00 AM64 °FOvercast.3 mph95%29.98 "Hg7 mi
4:00 AM63 °FFog.1 mph96%29.97 "Hg5 mi
3:00 AM64 °FFog.3 mph96%29.97 "Hg4 mi
2:00 AM66 °FFog.2 mph94%29.97 "Hg4 mi
1:00 AM67 °FPassing clouds.3 mph93%29.98 "Hg9 mi
12:00 AM68 °FPassing clouds.2 mph92%29.97 "Hg12 mi
11:00 PM
Wed, Jul 27
70 °FPassing clouds.1 mph85%29.95 "Hg16 mi
9:00 PMN/APassing clouds.28 mphN/AN/A2 mi
8:00 PM78 °FOvercast.2 mph70%29.91 "Hg19 mi
7:00 PM79 °FOvercast.1 mph61%29.92 "Hg19 mi
6:00 PMN/APassing clouds.30 mphN/AN/A17 mi
Weather by CustomWeather, © 2016

See weather overviewHow to use our weather pages